TimeCST,TemperatureF,Dew PointF,Humidity,Sea Level PressureIn,VisibilityMPH,Wind Direction,Wind SpeedMPH,Gust SpeedMPH,PrecipitationIn,Events,Conditions,WindDirDegrees,DateUTC
12:54 AM,27.0,23.0,85,30.14,6.0,SSE,5.8,-,N/A,,Scattered Clouds,160,2013-02-06 06:54:00
1:54 AM,28.4,24.8,86,30.10,6.0,East,3.5,-,N/A,,Clear,100,2013-02-06 07:54:00
2:54 AM,26.1,21.9,84,30.12,5.0,East,3.5,-,N/A,,Mostly Cloudy,100,2013-02-06 08:54:00
3:54 AM,28.0,25.0,88,30.13,4.0,SE,4.6,-,N/A,,Mostly Cloudy,130,2013-02-06 09:54:00
4:54 AM,28.0,25.0,88,30.14,6.0,ESE,6.9,-,N/A,,Overcast,120,2013-02-06 10:54:00
5:54 AM,28.0,25.0,88,30.14,5.0,ESE,5.8,-,N/A,,Mostly Cloudy,120,2013-02-06 11:54:00
6:54 AM,28.9,25.0,85,30.12,5.0,ESE,8.1,-,N/A,,Overcast,110,2013-02-06 12:54:00
7:54 AM,28.9,25.0,85,30.14,4.0,SE,9.2,-,N/A,,Overcast,130,2013-02-06 13:54:00
8:54 AM,30.0,25.0,82,30.13,5.0,SE,10.4,-,N/A,,Mostly Cloudy,130,2013-02-06 14:54:00
9:54 AM,34.0,28.0,79,30.11,7.0,SE,13.8,-,N/A,,Overcast,140,2013-02-06 15:54:00
10:54 AM,37.0,30.9,79,30.10,9.0,SSE,12.7,-,N/A,,Overcast,150,2013-02-06 16:54:00
11:54 AM,41.0,32.0,70,30.07,10.0,SSE,13.8,-,N/A,,Overcast,160,2013-02-06 17:54:00
12:54 PM,43.0,32.0,65,30.04,10.0,South,11.5,-,N/A,,Overcast,170,2013-02-06 18:54:00
1:54 PM,44.1,33.1,65,30.00,10.0,SSE,11.5,-,N/A,,Overcast,150,2013-02-06 19:54:00
2:54 PM,45.0,32.0,60,29.98,10.0,SSE,13.8,-,N/A,,Overcast,160,2013-02-06 20:54:00
3:54 PM,44.1,33.1,65,29.96,10.0,SSE,12.7,-,N/A,,Overcast,150,2013-02-06 21:54:00
4:54 PM,44.1,32.0,63,29.95,10.0,SE,8.1,-,N/A,,Overcast,140,2013-02-06 22:54:00
5:54 PM,42.1,32.0,67,29.95,10.0,SE,9.2,-,N/A,,Overcast,140,2013-02-06 23:54:00
6:54 PM,43.0,30.9,62,29.96,10.0,SE,10.4,-,N/A,,Overcast,140,2013-02-07 00:54:00
7:54 PM,43.0,32.0,65,29.96,10.0,SE,10.4,-,N/A,,Mostly Cloudy,130,2013-02-07 01:54:00
8:54 PM,43.0,30.9,62,29.95,10.0,SE,8.1,-,N/A,,Scattered Clouds,130,2013-02-07 02:54:00
9:54 PM,42.1,30.9,65,29.95,10.0,ESE,8.1,-,N/A,,Mostly Cloudy,120,2013-02-07 03:54:00
10:54 PM,42.1,30.9,65,29.94,10.0,ESE,8.1,-,N/A,,Overcast,120,2013-02-07 04:54:00
11:54 PM,42.1,32.0,67,29.94,10.0,SE,8.1,-,0.02,Rain,Light Rain,140,2013-02-07 05:54:00